sat.trackr.live / text

‹ back to catalog

KUIPER-00170

NORAD 65783 · 2025-217X

PAYLOAD ACTIVE UNKNOWN

§ Identity

Operator
Country
US
Launch date
2025-09-25
Launch site
AFETR
Launch vehicle
Mass (kg)
RCS (m²)

External: N2YO · Heavens-Above · Gunter

§ Orbital elements

Epoch: 2026-05-25T00:44:51.098208Z

Period
97.30 min
Inclination
51.8995°
Eccentricity
0.0000795
Mean motion
14.79924222 rev/d
Perigee alt
629.0 km
Apogee alt
630.1 km
Semi-major
7,007.7 km
B*
4.5599e-4
RAAN
60.4986°
Arg perigee
99.3873°
Mean anomaly
260.7179°
Rev number
3,625

§ Raw data

KUIPER-001701 65783U 25217X   26145.03114697  .00003256  00000+0  45599-3 0  99952 65783  51.8995  60.4986 0000795  99.3873 260.7179 14.79924222 36251

JSON: /api/v1/satellites/65783 · /tle

For live sub-satellite position, see the globe view (requires WebGL).

§ Visibility from observer

Set your observer location to see the next 7 days of passes ≥ 10°. The values pass through the URL so the page stays shareable.

No JS? Fill the form by hand. The geolocation button needs JavaScript.